Year,Month,Day,Hour,Minute,Value (Times are PST for temperature in C)
2019,10,11,00,00,6.90
2019,10,11,00,01,6.90
2019,10,11,00,02,6.90
2019,10,11,00,03,6.90
2019,10,11,00,04,6.90
2019,10,11,00,05,6.90
2019,10,11,00,06,6.90
2019,10,11,00,07,6.90
2019,10,11,00,08,6.90
2019,10,11,00,09,6.90
2019,10,11,00,10,6.90
2019,10,11,00,11,6.90
2019,10,11,00,12,6.90
2019,10,11,00,13,6.90
2019,10,11,00,14,6.90
2019,10,11,00,15,6.90
2019,10,11,00,16,6.90
2019,10,11,00,17,6.90
2019,10,11,00,18,6.90
2019,10,11,00,19,6.90
2019,10,11,00,20,6.90
2019,10,11,00,21,6.90
2019,10,11,00,22,6.90
2019,10,11,00,23,6.90
2019,10,11,00,24,6.80
2019,10,11,00,25,6.80
2019,10,11,00,26,6.80
2019,10,11,00,27,6.80
2019,10,11,00,28,6.80
2019,10,11,00,29,6.80
2019,10,11,00,30,6.80
2019,10,11,00,31,6.70
2019,10,11,00,32,6.70
2019,10,11,00,33,6.70
2019,10,11,00,34,6.70
2019,10,11,00,35,6.70
2019,10,11,00,36,6.70
2019,10,11,00,37,6.70
2019,10,11,00,38,6.60
2019,10,11,00,39,6.60
2019,10,11,00,40,6.60
2019,10,11,00,41,6.60
2019,10,11,00,42,6.60
2019,10,11,00,43,6.60
2019,10,11,00,44,6.60
2019,10,11,00,45,6.60
2019,10,11,00,46,6.60
2019,10,11,00,47,6.60
2019,10,11,00,48,6.60
2019,10,11,00,49,6.60
2019,10,11,00,50,6.60
2019,10,11,00,51,6.60
2019,10,11,00,52,6.60
2019,10,11,00,53,6.60
2019,10,11,00,54,6.60
2019,10,11,00,55,6.60
2019,10,11,00,56,6.60
2019,10,11,00,57,6.70
2019,10,11,00,58,6.70
2019,10,11,00,59,6.70
2019,10,11,01,00,6.70
2019,10,11,01,01,6.70
2019,10,11,01,02,6.70
2019,10,11,01,03,6.70
2019,10,11,01,04,6.70
2019,10,11,01,05,6.70
2019,10,11,01,06,6.80
2019,10,11,01,07,6.80
2019,10,11,01,08,6.80
2019,10,11,01,09,6.80
2019,10,11,01,10,6.80
2019,10,11,01,11,6.80
2019,10,11,01,12,6.90
2019,10,11,01,13,6.90
2019,10,11,01,14,6.90
2019,10,11,01,15,6.90
2019,10,11,01,16,6.90
2019,10,11,01,17,6.90
2019,10,11,01,18,6.90
2019,10,11,01,19,6.90
2019,10,11,01,20,6.90
2019,10,11,01,21,6.90
2019,10,11,01,22,6.90
2019,10,11,01,23,6.90
2019,10,11,01,24,6.90
2019,10,11,01,25,6.90
2019,10,11,01,26,6.90
2019,10,11,01,27,6.90
2019,10,11,01,28,6.90
2019,10,11,01,29,6.90
2019,10,11,01,30,6.90
2019,10,11,01,31,6.90
2019,10,11,01,32,6.90
2019,10,11,01,33,6.90
2019,10,11,01,34,6.90
2019,10,11,01,35,6.90
2019,10,11,01,36,6.90
2019,10,11,01,37,6.90
2019,10,11,01,38,6.90
2019,10,11,01,39,6.90
2019,10,11,01,40,7.00
2019,10,11,01,41,7.00
2019,10,11,01,42,6.90
2019,10,11,01,43,7.00
2019,10,11,01,44,7.00
2019,10,11,01,45,7.00
2019,10,11,01,46,7.00
2019,10,11,01,47,7.00
2019,10,11,01,48,7.00
2019,10,11,01,49,7.00
2019,10,11,01,50,7.00
2019,10,11,01,51,7.00
2019,10,11,01,52,7.00
2019,10,11,01,53,7.00
2019,10,11,01,54,7.00
2019,10,11,01,55,7.00
2019,10,11,01,56,7.00
2019,10,11,01,57,6.90
2019,10,11,01,58,6.90
2019,10,11,01,59,6.90
2019,10,11,02,00,6.90
2019,10,11,02,01,6.90
2019,10,11,02,02,6.90
2019,10,11,02,03,6.90
2019,10,11,02,04,6.90
2019,10,11,02,05,6.90
2019,10,11,02,06,6.90
2019,10,11,02,07,6.90
2019,10,11,02,08,6.90
2019,10,11,02,09,6.80
2019,10,11,02,10,6.80
2019,10,11,02,11,6.80
2019,10,11,02,12,6.80
2019,10,11,02,13,6.80
2019,10,11,02,14,6.80
2019,10,11,02,15,6.80
2019,10,11,02,16,6.80
2019,10,11,02,17,6.70
2019,10,11,02,18,6.70
2019,10,11,02,19,6.70
2019,10,11,02,20,6.70
2019,10,11,02,21,6.70
2019,10,11,02,22,6.70
2019,10,11,02,23,6.70
2019,10,11,02,24,6.70
2019,10,11,02,25,6.70
2019,10,11,02,26,6.70
2019,10,11,02,27,6.70
2019,10,11,02,28,6.70
2019,10,11,02,29,6.70
2019,10,11,02,30,6.70
2019,10,11,02,31,6.70
2019,10,11,02,32,6.70
2019,10,11,02,33,6.70
2019,10,11,02,34,6.70
2019,10,11,02,35,6.70
2019,10,11,02,36,6.70
2019,10,11,02,37,6.70
2019,10,11,02,38,6.70
2019,10,11,02,39,6.70
2019,10,11,02,40,6.70
2019,10,11,02,41,6.70
2019,10,11,02,42,6.70
2019,10,11,02,43,6.80
2019,10,11,02,44,6.80
2019,10,11,02,45,6.80
2019,10,11,02,46,6.80
2019,10,11,02,47,6.80
2019,10,11,02,48,6.80
2019,10,11,02,49,6.80
2019,10,11,02,50,6.80
2019,10,11,02,51,6.90
2019,10,11,02,52,6.90
2019,10,11,02,53,6.90
2019,10,11,02,54,6.90
2019,10,11,02,55,6.90
2019,10,11,02,56,7.00
2019,10,11,02,57,7.00
2019,10,11,02,58,7.00
2019,10,11,02,59,7.00
2019,10,11,03,00,7.00
2019,10,11,03,01,7.00
2019,10,11,03,02,7.00
2019,10,11,03,03,7.10
2019,10,11,03,04,7.10
2019,10,11,03,05,7.10
2019,10,11,03,06,7.10
2019,10,11,03,07,7.10
2019,10,11,03,08,7.10
2019,10,11,03,09,7.10
2019,10,11,03,10,7.10
2019,10,11,03,11,7.10
2019,10,11,03,12,7.10
2019,10,11,03,13,7.10
2019,10,11,03,14,7.10
2019,10,11,03,15,7.10
2019,10,11,03,16,7.10
2019,10,11,03,17,7.10
2019,10,11,03,18,7.10
2019,10,11,03,19,7.10
2019,10,11,03,20,7.10
2019,10,11,03,21,7.10
2019,10,11,03,22,7.00
2019,10,11,03,23,7.00
2019,10,11,03,24,7.00
2019,10,11,03,25,7.00
2019,10,11,03,26,7.00
2019,10,11,03,27,7.00
2019,10,11,03,28,7.00
2019,10,11,03,29,7.00
2019,10,11,03,30,7.00
2019,10,11,03,31,6.90
2019,10,11,03,32,6.90
2019,10,11,03,33,6.90
2019,10,11,03,34,6.90
2019,10,11,03,35,6.90
2019,10,11,03,36,6.90
2019,10,11,03,37,6.90
2019,10,11,03,38,6.90
2019,10,11,03,39,6.90
2019,10,11,03,40,6.90
2019,10,11,03,41,6.80
2019,10,11,03,42,6.80
2019,10,11,03,43,6.80
2019,10,11,03,44,6.80
2019,10,11,03,45,6.80
2019,10,11,03,46,6.80
2019,10,11,03,47,6.90
2019,10,11,03,48,6.80
2019,10,11,03,49,6.80
2019,10,11,03,50,6.80
2019,10,11,03,51,6.80
2019,10,11,03,52,6.80
2019,10,11,03,53,6.80
2019,10,11,03,54,6.80
2019,10,11,03,55,6.80
2019,10,11,03,56,6.80
2019,10,11,03,57,6.80
2019,10,11,03,58,6.80
2019,10,11,03,59,6.80
2019,10,11,04,00,6.80
2019,10,11,04,01,6.80
2019,10,11,04,02,6.80
2019,10,11,04,03,6.80
2019,10,11,04,04,6.90
2019,10,11,04,05,6.90
2019,10,11,04,06,6.90
2019,10,11,04,07,6.90
2019,10,11,04,08,6.90
2019,10,11,04,09,6.90
2019,10,11,04,10,6.90
2019,10,11,04,11,6.90
2019,10,11,04,12,6.90
2019,10,11,04,13,6.90
2019,10,11,04,14,6.90
2019,10,11,04,15,6.90
2019,10,11,04,16,6.90
2019,10,11,04,17,6.90
2019,10,11,04,18,6.90
2019,10,11,04,19,6.90
2019,10,11,04,20,6.90
2019,10,11,04,21,6.90
2019,10,11,04,22,6.90
2019,10,11,04,23,6.90
2019,10,11,04,24,6.90
2019,10,11,04,25,6.90
2019,10,11,04,26,6.90
2019,10,11,04,27,6.90
2019,10,11,04,28,6.90
2019,10,11,04,29,6.90
2019,10,11,04,30,6.90
2019,10,11,04,31,6.90
2019,10,11,04,32,6.90
2019,10,11,04,33,6.90
2019,10,11,04,34,6.90
2019,10,11,04,35,6.90
2019,10,11,04,36,6.90
2019,10,11,04,37,6.90
2019,10,11,04,38,6.80
2019,10,11,04,39,6.80
2019,10,11,04,40,6.80
2019,10,11,04,41,6.80
2019,10,11,04,42,6.80
2019,10,11,04,43,6.80
2019,10,11,04,44,6.80
2019,10,11,04,45,6.80
2019,10,11,04,46,6.80
2019,10,11,04,47,6.80
2019,10,11,04,48,6.80
2019,10,11,04,49,6.80
2019,10,11,04,50,6.80
2019,10,11,04,51,6.80
2019,10,11,04,52,6.80
2019,10,11,04,53,6.80
2019,10,11,04,54,6.80
2019,10,11,04,55,6.80
2019,10,11,04,56,6.80
2019,10,11,04,57,6.80
2019,10,11,04,58,6.80
2019,10,11,04,59,6.80
2019,10,11,05,00,6.80
2019,10,11,05,01,6.80
2019,10,11,05,02,6.80
2019,10,11,05,03,6.90
2019,10,11,05,04,6.90
2019,10,11,05,05,6.90
2019,10,11,05,06,6.90
2019,10,11,05,07,6.90
2019,10,11,05,08,6.90
2019,10,11,05,09,6.90
2019,10,11,05,10,6.90
2019,10,11,05,11,6.90
2019,10,11,05,12,6.90
2019,10,11,05,13,7.00
2019,10,11,05,14,7.00
2019,10,11,05,15,7.00
2019,10,11,05,16,7.00
2019,10,11,05,17,7.00
2019,10,11,05,18,7.00
2019,10,11,05,19,7.00
2019,10,11,05,20,7.10
2019,10,11,05,21,7.10
2019,10,11,05,22,7.10
2019,10,11,05,23,7.10
2019,10,11,05,24,7.10
2019,10,11,05,25,7.10
2019,10,11,05,26,7.00
2019,10,11,05,27,7.00
2019,10,11,05,28,7.00
2019,10,11,05,29,7.00
2019,10,11,05,30,7.00
2019,10,11,05,31,7.00
2019,10,11,05,32,6.90
2019,10,11,05,33,6.90
2019,10,11,05,34,6.90
2019,10,11,05,35,6.90
2019,10,11,05,36,6.90
2019,10,11,05,37,6.90
2019,10,11,05,38,6.90
2019,10,11,05,39,6.90
2019,10,11,05,40,6.90
2019,10,11,05,41,6.90
2019,10,11,05,42,6.90
2019,10,11,05,43,6.80
2019,10,11,05,44,6.80
2019,10,11,05,45,6.80
2019,10,11,05,46,6.80
2019,10,11,05,47,6.80
2019,10,11,05,48,6.80
2019,10,11,05,49,6.90
2019,10,11,05,50,6.90
2019,10,11,05,51,6.90
2019,10,11,05,52,6.90
2019,10,11,05,53,6.90
2019,10,11,05,54,6.90
2019,10,11,05,55,6.90
2019,10,11,05,56,6.90
2019,10,11,05,57,6.90
2019,10,11,05,58,6.90
2019,10,11,05,59,6.90
2019,10,11,06,00,6.90
2019,10,11,06,01,6.90
2019,10,11,06,02,6.90
2019,10,11,06,03,6.90
2019,10,11,06,04,6.90
2019,10,11,06,05,6.90
2019,10,11,06,06,6.90
2019,10,11,06,07,6.90
2019,10,11,06,08,6.90
2019,10,11,06,09,6.90
2019,10,11,06,10,6.90
2019,10,11,06,11,6.90
2019,10,11,06,12,6.90
2019,10,11,06,13,6.90
2019,10,11,06,14,6.90
2019,10,11,06,15,6.90
2019,10,11,06,16,6.90
2019,10,11,06,17,6.90
2019,10,11,06,18,6.90
2019,10,11,06,19,6.90
2019,10,11,06,20,6.90
2019,10,11,06,21,6.90
2019,10,11,06,22,6.90
2019,10,11,06,23,6.90
2019,10,11,06,24,6.90
2019,10,11,06,25,6.90
2019,10,11,06,26,6.90
2019,10,11,06,27,6.90
2019,10,11,06,28,6.90
2019,10,11,06,29,6.90
2019,10,11,06,30,6.90
2019,10,11,06,31,6.90
2019,10,11,06,32,6.90
2019,10,11,06,33,6.90
2019,10,11,06,34,6.90
2019,10,11,06,35,6.90
2019,10,11,06,36,6.90
2019,10,11,06,37,6.90
2019,10,11,06,38,6.90
2019,10,11,06,39,6.90
2019,10,11,06,40,6.90
2019,10,11,06,41,6.90
2019,10,11,06,42,6.90
2019,10,11,06,43,6.90
2019,10,11,06,44,6.90
2019,10,11,06,45,6.90
2019,10,11,06,46,6.90
2019,10,11,06,47,6.90
2019,10,11,06,48,6.90
2019,10,11,06,49,6.90
2019,10,11,06,50,6.90
2019,10,11,06,51,7.00
2019,10,11,06,52,7.00
2019,10,11,06,53,7.00
2019,10,11,06,54,7.00
2019,10,11,06,55,7.00
2019,10,11,06,56,7.00
2019,10,11,06,57,7.00
2019,10,11,06,58,7.00
2019,10,11,06,59,7.10
2019,10,11,07,00,7.10
2019,10,11,07,01,7.10
2019,10,11,07,02,7.10
2019,10,11,07,03,7.10
2019,10,11,07,04,7.10
2019,10,11,07,05,7.10
2019,10,11,07,06,7.10
2019,10,11,07,07,7.00
2019,10,11,07,08,7.00
2019,10,11,07,09,7.00
2019,10,11,07,10,7.00
2019,10,11,07,11,7.00
2019,10,11,07,12,6.90
2019,10,11,07,13,6.90
2019,10,11,07,14,6.90
2019,10,11,07,15,6.90
2019,10,11,07,16,6.90
2019,10,11,07,17,6.90
2019,10,11,07,18,6.90
2019,10,11,07,19,6.90
2019,10,11,07,20,6.90
2019,10,11,07,21,6.80
2019,10,11,07,22,6.80
2019,10,11,07,23,6.80
2019,10,11,07,24,6.80
2019,10,11,07,25,6.90
2019,10,11,07,26,6.90
2019,10,11,07,27,6.90
2019,10,11,07,28,6.90
2019,10,11,07,29,6.90
2019,10,11,07,30,6.90
2019,10,11,07,31,6.90
2019,10,11,07,32,6.90
2019,10,11,07,33,6.90
2019,10,11,07,34,6.90
2019,10,11,07,35,6.90
2019,10,11,07,36,7.00
2019,10,11,07,37,7.00
2019,10,11,07,38,7.00
2019,10,11,07,39,7.00
2019,10,11,07,40,7.00
2019,10,11,07,41,7.00
2019,10,11,07,42,7.00
2019,10,11,07,43,7.00
2019,10,11,07,44,7.00
2019,10,11,07,45,7.00
2019,10,11,07,46,7.00
2019,10,11,07,47,7.00
2019,10,11,07,48,7.00
2019,10,11,07,49,7.00
2019,10,11,07,50,7.00
2019,10,11,07,51,7.00
2019,10,11,07,52,7.10
2019,10,11,07,53,7.10
2019,10,11,07,54,7.10
2019,10,11,07,55,7.10
2019,10,11,07,56,7.10
2019,10,11,07,57,7.10
2019,10,11,07,58,7.10
2019,10,11,07,59,7.10
2019,10,11,08,00,7.10
2019,10,11,08,01,7.10
2019,10,11,08,02,7.10
2019,10,11,08,03,7.10
2019,10,11,08,04,7.10
2019,10,11,08,05,7.10
2019,10,11,08,06,7.10
2019,10,11,08,07,7.10
2019,10,11,08,08,7.10
2019,10,11,08,09,7.10
2019,10,11,08,10,7.10
2019,10,11,08,11,7.10
2019,10,11,08,12,7.10
2019,10,11,08,13,7.10
2019,10,11,08,14,7.10
2019,10,11,08,15,7.10
2019,10,11,08,16,7.10
2019,10,11,08,17,7.10
2019,10,11,08,18,7.10
2019,10,11,08,19,7.20
2019,10,11,08,20,7.20
2019,10,11,08,21,7.20
2019,10,11,08,22,7.20
2019,10,11,08,23,7.20
2019,10,11,08,24,7.20
2019,10,11,08,25,7.20
2019,10,11,08,26,7.20
2019,10,11,08,27,7.20
2019,10,11,08,28,7.30
2019,10,11,08,29,7.30
2019,10,11,08,30,7.30
2019,10,11,08,31,7.30
2019,10,11,08,32,7.30
2019,10,11,08,33,7.30
2019,10,11,08,34,7.30
2019,10,11,08,35,7.40
2019,10,11,08,36,7.40
2019,10,11,08,37,7.40
2019,10,11,08,38,7.40
2019,10,11,08,39,7.50
2019,10,11,08,40,7.50
2019,10,11,08,41,7.50
2019,10,11,08,42,7.60
2019,10,11,08,43,7.60
2019,10,11,08,44,7.60
2019,10,11,08,45,7.70
2019,10,11,08,46,7.70
2019,10,11,08,47,7.70
2019,10,11,08,48,7.70
2019,10,11,08,49,7.80
2019,10,11,08,50,7.80
2019,10,11,08,51,7.80
2019,10,11,08,52,7.90
2019,10,11,08,53,7.90
2019,10,11,08,54,7.90
2019,10,11,08,55,7.90
2019,10,11,08,56,7.90
2019,10,11,08,57,7.90
2019,10,11,08,58,8.00
2019,10,11,08,59,8.00
2019,10,11,09,00,8.00
2019,10,11,09,01,8.00
2019,10,11,09,02,8.10
2019,10,11,09,03,8.10
2019,10,11,09,04,8.10
2019,10,11,09,05,8.10
2019,10,11,09,06,8.10
2019,10,11,09,07,8.10
2019,10,11,09,08,8.20
2019,10,11,09,09,8.20
2019,10,11,09,10,8.20
2019,10,11,09,11,8.20
2019,10,11,09,12,8.20
2019,10,11,09,13,8.20
2019,10,11,09,14,8.20
2019,10,11,09,15,8.20
2019,10,11,09,16,8.20
2019,10,11,09,17,8.20
2019,10,11,09,18,8.20
2019,10,11,09,19,8.20
2019,10,11,09,20,8.20
2019,10,11,09,21,8.20
2019,10,11,09,22,8.20
2019,10,11,09,23,8.20
2019,10,11,09,24,8.20
2019,10,11,09,25,8.20
2019,10,11,09,26,8.20
2019,10,11,09,27,8.30
2019,10,11,09,28,8.30
2019,10,11,09,29,8.30
2019,10,11,09,30,8.30
2019,10,11,09,31,8.30
2019,10,11,09,32,8.30
2019,10,11,09,33,8.30
2019,10,11,09,34,8.40
2019,10,11,09,35,8.40
2019,10,11,09,36,8.40
2019,10,11,09,37,8.40
2019,10,11,09,38,8.40
2019,10,11,09,39,8.40
2019,10,11,09,40,8.50
2019,10,11,09,41,8.50
2019,10,11,09,42,8.50
2019,10,11,09,43,8.60
2019,10,11,09,44,8.60
2019,10,11,09,45,8.60
2019,10,11,09,46,8.60
2019,10,11,09,47,8.60
2019,10,11,09,48,8.60
2019,10,11,09,49,8.60
2019,10,11,09,50,8.70
2019,10,11,09,51,8.70
2019,10,11,09,52,8.70
2019,10,11,09,53,8.70
2019,10,11,09,54,8.70
2019,10,11,09,55,8.70
2019,10,11,09,56,8.70
2019,10,11,09,57,8.70
2019,10,11,09,58,8.80
2019,10,11,09,59,8.80
2019,10,11,10,00,8.80
2019,10,11,10,01,8.90
2019,10,11,10,02,8.90
2019,10,11,10,03,8.90
2019,10,11,10,04,9.00
2019,10,11,10,05,9.00
2019,10,11,10,06,9.00
2019,10,11,10,07,9.10
2019,10,11,10,08,9.10
2019,10,11,10,09,9.10
2019,10,11,10,10,9.10
2019,10,11,10,11,9.10
2019,10,11,10,12,9.10
2019,10,11,10,13,9.10
2019,10,11,10,14,9.10
2019,10,11,10,15,9.20
2019,10,11,10,16,9.20
2019,10,11,10,17,9.20
2019,10,11,10,18,9.20
2019,10,11,10,19,9.20
2019,10,11,10,20,9.20
2019,10,11,10,21,9.20
2019,10,11,10,22,9.20
2019,10,11,10,23,9.20
2019,10,11,10,24,9.20
2019,10,11,10,25,9.20
2019,10,11,10,26,9.20
2019,10,11,10,27,9.20
2019,10,11,10,28,9.20
2019,10,11,10,29,9.30
2019,10,11,10,30,9.30
2019,10,11,10,31,9.30
2019,10,11,10,32,9.30
2019,10,11,10,33,9.30
2019,10,11,10,34,9.30
2019,10,11,10,35,9.40
2019,10,11,10,36,9.40
2019,10,11,10,37,9.40
2019,10,11,10,38,9.40
2019,10,11,10,39,9.50
2019,10,11,10,40,9.50
2019,10,11,10,41,9.50
2019,10,11,10,42,9.50
2019,10,11,10,43,9.50
2019,10,11,10,44,9.40
2019,10,11,10,45,9.40
2019,10,11,10,46,9.40
2019,10,11,10,47,9.40
2019,10,11,10,48,9.40
2019,10,11,10,49,9.40
2019,10,11,10,50,9.40
2019,10,11,10,51,9.40
2019,10,11,10,52,9.40
2019,10,11,10,53,9.40
2019,10,11,10,54,9.30
2019,10,11,10,55,9.30
2019,10,11,10,56,9.30
2019,10,11,10,57,9.30
2019,10,11,10,58,9.30
2019,10,11,10,59,9.30
2019,10,11,11,00,9.30
2019,10,11,11,01,9.30
2019,10,11,11,02,9.30
2019,10,11,11,03,9.30
2019,10,11,11,04,9.30
2019,10,11,11,05,9.30
2019,10,11,11,06,9.30
2019,10,11,11,07,9.30
2019,10,11,11,08,9.30
2019,10,11,11,09,9.30
2019,10,11,11,10,9.40
2019,10,11,11,11,9.40
2019,10,11,11,12,9.40
2019,10,11,11,13,9.40
2019,10,11,11,14,9.50
2019,10,11,11,15,9.50
2019,10,11,11,16,9.50
2019,10,11,11,17,9.60
2019,10,11,11,18,9.60
2019,10,11,11,19,9.70
2019,10,11,11,20,9.70
2019,10,11,11,21,9.70
2019,10,11,11,22,9.70
2019,10,11,11,23,9.70
2019,10,11,11,24,9.80
2019,10,11,11,25,9.80
2019,10,11,11,26,9.80
2019,10,11,11,27,9.80
2019,10,11,11,28,9.80
2019,10,11,11,29,9.80
2019,10,11,11,30,9.80
2019,10,11,11,31,9.80
2019,10,11,11,32,9.80
2019,10,11,11,33,9.80
2019,10,11,11,34,9.80
2019,10,11,11,35,9.80
2019,10,11,11,36,9.80
2019,10,11,11,37,9.90
2019,10,11,11,38,9.90
2019,10,11,11,39,9.90
2019,10,11,11,40,10.00
2019,10,11,11,41,10.10
2019,10,11,11,42,10.20
2019,10,11,11,43,10.20
2019,10,11,11,44,10.20
2019,10,11,11,45,10.20
2019,10,11,11,46,10.20
2019,10,11,11,47,10.20
2019,10,11,11,48,10.20
2019,10,11,11,49,10.20
2019,10,11,11,50,10.20
2019,10,11,11,51,10.10
2019,10,11,11,52,10.10
2019,10,11,11,53,10.10
2019,10,11,11,54,10.10
2019,10,11,11,55,10.10
2019,10,11,11,56,10.10
2019,10,11,11,57,10.10
2019,10,11,11,58,10.10
2019,10,11,11,59,10.20
2019,10,11,12,00,10.20
2019,10,11,12,01,10.20
2019,10,11,12,02,10.20
2019,10,11,12,03,10.20
2019,10,11,12,04,10.10
2019,10,11,12,05,10.10
2019,10,11,12,06,10.10
2019,10,11,12,07,10.10
2019,10,11,12,08,10.10
2019,10,11,12,09,10.10
2019,10,11,12,10,10.10
2019,10,11,12,11,10.10
2019,10,11,12,12,10.10
2019,10,11,12,13,10.10
2019,10,11,12,14,10.10
2019,10,11,12,15,10.20
2019,10,11,12,16,10.20
2019,10,11,12,17,10.30
2019,10,11,12,18,10.30
2019,10,11,12,19,10.30
2019,10,11,12,20,10.30
2019,10,11,12,21,10.40
2019,10,11,12,22,10.40
2019,10,11,12,23,10.40
2019,10,11,12,24,10.40
2019,10,11,12,25,10.40
2019,10,11,12,26,10.40
2019,10,11,12,27,10.40
2019,10,11,12,28,10.40
2019,10,11,12,29,10.40
2019,10,11,12,30,10.50
2019,10,11,12,31,10.50
2019,10,11,12,32,10.50
2019,10,11,12,33,10.60
2019,10,11,12,34,10.60
2019,10,11,12,35,10.70
2019,10,11,12,36,10.70
2019,10,11,12,37,10.70
2019,10,11,12,38,10.70
2019,10,11,12,39,10.80
2019,10,11,12,40,10.80
2019,10,11,12,41,10.80
2019,10,11,12,42,10.70
2019,10,11,12,43,10.70
2019,10,11,12,44,10.70
2019,10,11,12,45,10.80
2019,10,11,12,46,10.80
2019,10,11,12,47,10.90
2019,10,11,12,48,10.90
2019,10,11,12,49,10.90
2019,10,11,12,50,10.90
2019,10,11,12,51,10.90
2019,10,11,12,52,10.90
2019,10,11,12,53,10.90
2019,10,11,12,54,11.00
2019,10,11,12,55,11.00
2019,10,11,12,56,11.10
2019,10,11,12,57,11.10
2019,10,11,12,58,11.20
2019,10,11,12,59,11.30
2019,10,11,13,00,11.30
2019,10,11,13,01,11.40
2019,10,11,13,02,11.40
2019,10,11,13,03,11.40
2019,10,11,13,04,11.40
2019,10,11,13,05,11.40
2019,10,11,13,06,11.40
2019,10,11,13,07,11.40
2019,10,11,13,08,11.40
2019,10,11,13,09,11.40
2019,10,11,13,10,11.40
2019,10,11,13,11,11.50
2019,10,11,13,12,11.50
2019,10,11,13,13,11.50
2019,10,11,13,14,11.50
2019,10,11,13,15,11.40
2019,10,11,13,16,11.40
2019,10,11,13,17,11.50
2019,10,11,13,18,11.50
2019,10,11,13,19,11.50
2019,10,11,13,20,11.50
2019,10,11,13,21,11.50
2019,10,11,13,22,11.50
2019,10,11,13,23,11.50
2019,10,11,13,24,11.50
2019,10,11,13,25,11.50
2019,10,11,13,26,11.50
2019,10,11,13,27,11.60
2019,10,11,13,28,11.60
2019,10,11,13,29,11.50
2019,10,11,13,30,11.50
2019,10,11,13,31,11.50
2019,10,11,13,32,11.50
2019,10,11,13,33,11.40
2019,10,11,13,34,11.40
2019,10,11,13,35,11.40
2019,10,11,13,36,11.40
2019,10,11,13,37,11.40
2019,10,11,13,38,11.40
2019,10,11,13,39,11.50
2019,10,11,13,40,11.40
2019,10,11,13,41,11.50
2019,10,11,13,42,11.50
2019,10,11,13,43,11.50
2019,10,11,13,44,11.60
2019,10,11,13,45,11.60
2019,10,11,13,46,11.60
2019,10,11,13,47,11.50
2019,10,11,13,48,11.50
2019,10,11,13,49,11.60
2019,10,11,13,50,11.50
2019,10,11,13,51,11.60
2019,10,11,13,52,11.60
2019,10,11,13,53,11.60
2019,10,11,13,54,11.60
2019,10,11,13,55,11.60
2019,10,11,13,56,11.70
2019,10,11,13,57,11.70
2019,10,11,13,58,11.70
2019,10,11,13,59,11.80
2019,10,11,14,00,11.80
2019,10,11,14,01,11.80
2019,10,11,14,02,11.80
2019,10,11,14,03,11.80
2019,10,11,14,04,11.80
2019,10,11,14,05,11.70
2019,10,11,14,06,11.70
2019,10,11,14,07,11.60
2019,10,11,14,08,11.60
2019,10,11,14,09,11.50
2019,10,11,14,10,11.50
2019,10,11,14,11,11.40
2019,10,11,14,12,11.50
2019,10,11,14,13,11.50
2019,10,11,14,14,11.60
2019,10,11,14,15,11.60
2019,10,11,14,16,11.60
2019,10,11,14,17,11.70
2019,10,11,14,18,11.70
2019,10,11,14,19,11.80
2019,10,11,14,20,11.80
2019,10,11,14,21,11.80
2019,10,11,14,22,11.70
2019,10,11,14,23,11.70
2019,10,11,14,24,11.70
2019,10,11,14,25,11.70
2019,10,11,14,26,11.70
2019,10,11,14,27,11.70
2019,10,11,14,28,11.80
2019,10,11,14,29,11.80
2019,10,11,14,30,11.80
2019,10,11,14,31,11.80
2019,10,11,14,32,11.80
2019,10,11,14,33,11.80
2019,10,11,14,34,11.80
2019,10,11,14,35,11.80
2019,10,11,14,36,11.90
2019,10,11,14,37,11.90
2019,10,11,14,38,11.90
2019,10,11,14,39,11.90
2019,10,11,14,40,11.90
2019,10,11,14,41,11.80
2019,10,11,14,42,11.90
2019,10,11,14,43,11.90
2019,10,11,14,44,11.90
2019,10,11,14,45,11.90
2019,10,11,14,46,12.00
2019,10,11,14,47,12.10
2019,10,11,14,48,12.10
2019,10,11,14,49,12.10
2019,10,11,14,50,12.10
2019,10,11,14,51,12.10
2019,10,11,14,52,12.10
2019,10,11,14,53,12.00
2019,10,11,14,54,12.10
2019,10,11,14,55,12.10
2019,10,11,14,56,12.10
2019,10,11,14,57,12.10
2019,10,11,14,58,12.10
2019,10,11,14,59,12.10
2019,10,11,15,00,12.10
2019,10,11,15,01,12.20
2019,10,11,15,02,12.30
2019,10,11,15,03,12.40
2019,10,11,15,04,12.40
2019,10,11,15,05,12.40
2019,10,11,15,06,12.30
2019,10,11,15,07,12.30
2019,10,11,15,08,12.30
2019,10,11,15,09,12.30
2019,10,11,15,10,12.20
2019,10,11,15,11,12.20
2019,10,11,15,12,12.20
2019,10,11,15,13,12.20
2019,10,11,15,14,12.20
2019,10,11,15,15,12.20
2019,10,11,15,16,12.10
2019,10,11,15,17,12.10
2019,10,11,15,18,12.10
2019,10,11,15,19,12.10
2019,10,11,15,20,12.10
2019,10,11,15,21,12.10
2019,10,11,15,22,12.10
2019,10,11,15,23,12.20
2019,10,11,15,24,12.20
2019,10,11,15,25,12.20
2019,10,11,15,26,12.20
2019,10,11,15,27,12.20
2019,10,11,15,28,12.20
2019,10,11,15,29,12.20
2019,10,11,15,30,12.20
2019,10,11,15,31,12.20
2019,10,11,15,32,12.10
2019,10,11,15,33,12.10
2019,10,11,15,34,12.10
2019,10,11,15,35,12.10
2019,10,11,15,36,12.10
2019,10,11,15,37,12.10
2019,10,11,15,38,12.10
2019,10,11,15,39,12.10
2019,10,11,15,40,12.10
2019,10,11,15,41,12.10
2019,10,11,15,42,12.10
2019,10,11,15,43,12.10
2019,10,11,15,44,12.20
2019,10,11,15,45,12.20
2019,10,11,15,46,12.20
2019,10,11,15,47,12.20
2019,10,11,15,48,12.20
2019,10,11,15,49,12.30
2019,10,11,15,50,12.30
2019,10,11,15,51,12.30
2019,10,11,15,52,12.30
2019,10,11,15,53,12.30
2019,10,11,15,54,12.30
2019,10,11,15,55,12.30
2019,10,11,15,56,12.30
2019,10,11,15,57,12.30
2019,10,11,15,58,12.30
2019,10,11,15,59,12.30
2019,10,11,16,00,12.30
2019,10,11,16,01,12.30
2019,10,11,16,02,12.30
2019,10,11,16,03,12.30
2019,10,11,16,04,12.30
2019,10,11,16,05,12.30
2019,10,11,16,06,12.30
2019,10,11,16,07,12.30
2019,10,11,16,08,12.40
2019,10,11,16,09,12.40
2019,10,11,16,10,12.40
2019,10,11,16,11,12.40
2019,10,11,16,12,12.50
2019,10,11,16,13,12.50
2019,10,11,16,14,12.50
2019,10,11,16,15,12.60
2019,10,11,16,16,12.60
2019,10,11,16,17,12.60
2019,10,11,16,18,12.60
2019,10,11,16,19,12.60
2019,10,11,16,20,12.60
2019,10,11,16,21,12.60
2019,10,11,16,22,12.60
2019,10,11,16,23,12.60
2019,10,11,16,24,12.60
2019,10,11,16,25,12.60
2019,10,11,16,26,12.50
2019,10,11,16,27,12.50
2019,10,11,16,28,12.40
2019,10,11,16,29,12.40
2019,10,11,16,30,12.40
2019,10,11,16,31,12.40
2019,10,11,16,32,12.40
2019,10,11,16,33,12.40
2019,10,11,16,34,12.40
2019,10,11,16,35,12.40
2019,10,11,16,36,12.40
2019,10,11,16,37,12.40
2019,10,11,16,38,12.40
2019,10,11,16,39,12.40
2019,10,11,16,40,12.30
2019,10,11,16,41,12.30
2019,10,11,16,42,12.30
2019,10,11,16,43,12.30
2019,10,11,16,44,12.30
2019,10,11,16,45,12.30
2019,10,11,16,46,12.30
2019,10,11,16,47,12.30
2019,10,11,16,48,12.20
2019,10,11,16,49,12.20
2019,10,11,16,50,12.30
2019,10,11,16,51,12.30
2019,10,11,16,52,12.30
2019,10,11,16,53,12.30
2019,10,11,16,54,12.30
2019,10,11,16,55,12.30
2019,10,11,16,56,12.30
2019,10,11,16,57,12.30
2019,10,11,16,58,12.30
2019,10,11,16,59,12.30
2019,10,11,17,00,12.30
2019,10,11,17,01,12.30
2019,10,11,17,02,12.30
2019,10,11,17,03,12.30
2019,10,11,17,04,12.30
2019,10,11,17,05,12.40
2019,10,11,17,06,12.40
2019,10,11,17,07,12.40
2019,10,11,17,08,12.40
2019,10,11,17,09,12.40
2019,10,11,17,10,12.40
2019,10,11,17,11,12.40
2019,10,11,17,12,12.40
2019,10,11,17,13,12.40
2019,10,11,17,14,12.40
2019,10,11,17,15,12.40
2019,10,11,17,16,12.40
2019,10,11,17,17,12.40
2019,10,11,17,18,12.40
2019,10,11,17,19,12.40
2019,10,11,17,20,12.40
2019,10,11,17,21,12.40
2019,10,11,17,22,12.40
2019,10,11,17,23,12.40
2019,10,11,17,24,12.30
2019,10,11,17,25,12.30
2019,10,11,17,26,12.30
2019,10,11,17,27,12.30
2019,10,11,17,28,12.30
2019,10,11,17,29,12.30
2019,10,11,17,30,12.30
2019,10,11,17,31,12.30
2019,10,11,17,32,12.30
2019,10,11,17,33,12.30
2019,10,11,17,34,12.20
2019,10,11,17,35,12.20
2019,10,11,17,36,12.20
2019,10,11,17,37,12.20
2019,10,11,17,38,12.10
2019,10,11,17,39,12.10
2019,10,11,17,40,12.10
2019,10,11,17,41,12.10
2019,10,11,17,42,12.10
2019,10,11,17,43,12.10
2019,10,11,17,44,12.00
2019,10,11,17,45,12.00
2019,10,11,17,46,12.00
2019,10,11,17,47,11.90
2019,10,11,17,48,11.90
2019,10,11,17,49,11.90